Find Starlink 30880

NORAD ID: 58232 Int'l Des: 2023-171 Owner: SPXS Country: US Constellation: starlink operational
LEOCIRCULAR

リアルタイム位置

3D地球を読み込み中...

Starlink 30880について

説明を読み込み中...

次回通過

Passes for default location (London). Set your location on the main map for personalized predictions.

高度履歴

Loading altitude history...

軌道要素

1 58232U 23171C 26126.91535308 -.00013544 00000-0 -48471-3 0 9991
2 58232 43.0051 316.0499 0001653 267.3066 92.7596 15.27500640138642
Epoch: May 6, 2026 • Age: 13 hours

現在のステータス

高度 483.3 km
速度 7.63 km/s
衛星直下点 20.57°N, 48.51°W
打ち上げ日 Nov 8, 2023
運用期間 2.4 years
タイプ internet

技術仕様

分類 Payload
質量 730.00 kg
乾燥質量 700.00 kg
総質量 730.00 kg
長さ 0.30 m
直径 4.10 m
スパン 29.00 m
形状 Box + pan
製造者 SPXS
バスタイプ Starlink V2M
フェーズステータス In Orbit
所有者/国 SPXS/US

Most Searched